Starlink 11210

operational
NORAD ID: 60116 Int'l Des: 2024-118 Owner: SPXS Country: US Constellation: starlink
LEOCIRCULAR

关于 Starlink 11210

正在加载描述...

实时位置

正在加载3D地球...

即将过境

高度历史

Altitude vs Time

uPlot chart will show altitude changes over time

两行轨道根数

1 60116U 24118D 25258.54999650 .00000440 00000-0 84885-5 0 9995
2 60116 53.1590 4.7834 0001046 80.2009 279.9127 15.69718424 70488
Epoch: Sep 15, 2025 • Age: 30 hours

当前状态

高度 376.9 km
速度 7.68 km/s
星下点 -48.31°S, 13.75°E
发射日期 Jun 24, 2024
运行时间 1.2 years
类型 internet

技术详情

分类 Payload
质量 960.00 kg
干质量 910.00 kg
总质量 960.00 kg
长度 0.30 m
直径 4.10 m
跨度 29.00 m
形状 Box + pan
制造商 SPXS
平台类型 Starlink V2MD
阶段状态 In Orbit
所有者/国家 SPXS/US

大型星座

Loading constellations...